Skip Page Navigation
NASA JPL Caltech
NASA Logo - Jet Propulsion Laboratory + View the NASA Portal
+ Center for Near-Earth Object Studies
JPL Home Earth Solar System Stars & Galaxies Technology
JPL Solar System Dynamics
BODIES ORBITS EPHEMERIDES TOOLS PHYSICAL DATA DISCOVERY FAQ SITE MAP
JPL Small-Body Database Browser
Search: [ help ]  
24092 (1999 UU13)
Classification: Main-belt Asteroid          SPK-ID: 2024092
Ephemeris | Orbit Diagram | Orbital Elements | Mission Design | Physical Parameters | Discovery Circumstances | Close-Approach Data ]

[ show orbit diagram ]
Orbital Elements at Epoch 2459200.5 (2020-Dec-17.0) TDB
Reference: JPL 29 (heliocentric ecliptic J2000)
 Element Value Uncertainty (1-sigma)   Units 
e .1364394581304495 3.5309e-08  
a 2.292876551881109 7.1438e-09 au
q 1.980037717582436 8.3083e-08 au
i 4.43883439723775 4.4023e-06 deg
node 235.8834369953137 4.7376e-05 deg
peri 266.6202621146035 5.0302e-05 deg
M 279.8308059008601 1.6838e-05 deg
tp 2459482.906347236107
(2021-Sep-25.40634724)
5.9536e-05 TDB
period 1268.146526199012
3.47
5.9266e-06
1.623e-08
d
yr
n .2838788677512055 1.3267e-09 deg/d
Q 2.605715386179781 8.1185e-09 au
  Orbit Determination Parameters
   # obs. used (total)      1989  
   data-arc span      14969 days (40.98 yr)  
   first obs. used      1980-03-16  
   last obs. used      2021-03-10  
   planetary ephem.      DE441  
   SB-pert. ephem.      SB441-N16  
   condition code      0  
   norm. resid. RMS      .47294  
   source      ORB  
   producer      Otto Matic  
   solution date      2021-Apr-13 04:35:47  

Additional Information
 Earth MOID = .998428 au 
 Jupiter MOID = 2.42665 au 
 T_jup = 3.581 
[ show covariance matrix ]

Ephemeris | Orbit Diagram | Orbital Elements | Mission Design | Physical Parameters | Discovery Circumstances | Close-Approach Data ]

Physical Parameter Table
Parameter Symbol Value Units Sigma Reference Notes
absolute magnitude H 14.39   n/a E2021B10  
rotation period rot_per 2.879 h n/a LCDB (Rev. 2020-October); Warner et al., 2009 Result based on fragmentary lightcurve(s), may be completely wrong.
Published Reference List:
[Waszczak, A.; Chang, C.-K.; Ofeck, E.O.; Laher, F.; et al. (2015) Astron. J. 150, A75.]

24092 (1999 UU13)          Discovered 1999-Oct-29 by CSS at Catalina
Reference: 20010408/Numbers.arcLast Updated: 2004-04-19

[ show close-approach data ]
Alternate Designations
 1999 UU13 = 1980 FJ9 
Ephemeris | Orbit Diagram | Orbital Elements | Mission Design | Physical Parameters | Discovery Circumstances | Close-Approach Data ]
ABOUT SSD CREDITS/AWARDS PRIVACY/COPYRIGHT GLOSSARY LINKS
FirstGov 2021-Jun-21 02:04 UT
(server date/time)  
NASA Home Page
Site Manager:   Ryan S. Park
Webmaster  Alan B. Chamberlin